Location: Elmsmere
(40.9284°N, 73.8207°W)
Time: 04:22:24
(UTC+00:00)

CORIOLIS - Pass Details

Date: 29 October 2020
Orbit: 819 x 838 km, 98.7° (Epoch: 29 November)

Event Time Altitude Azimuth Distance (km) Brightness Sun altitude
Rises 22:30:50 0° 166° (SSE) 3,334 7.3 -7.5°
Reaches altitude 10° 22:33:10 10° 167° (SSE) 2,406 6.6 -7.9°
Maximum altitude 22:38:30 85° 257° (WSW) 829 4.2 -8.9°
Drops below altitude 10° 22:43:53 10° 345° (NNW) 2,429 6.7 -9.9°
Sets 22:46:15 0° 346° (NNW) 3,368 7.4 -10.4°
